Time,TemperatureF,DewpointF,PressureIn,WindDirection,WindDirectionDegrees,WindSpeedMPH,WindSpeedGustMPH,Humidity,HourlyPrecipIn,Conditions,Clouds,dailyrainin,SoftwareType,DateUTC
2013-05-05 00:05:00,61.7,44.9,30.00,ENE,74,2.0,5.0,54,0.00,,,0.00,Wunderground v.1.15,2013-05-05 04:05:00,
2013-05-05 01:05:00,61.0,45.2,30.01,ESE,105,1.0,5.0,56,0.00,,,0.00,Wunderground v.1.15,2013-05-05 05:05:00,
2013-05-05 02:05:00,59.9,45.5,30.02,ESE,111,1.0,5.0,59,0.00,,,0.00,Wunderground v.1.15,2013-05-05 06:05:00,
2013-05-05 03:05:00,58.2,45.7,30.01,East,88,0.0,5.0,63,0.00,,,0.00,Wunderground v.1.15,2013-05-05 07:05:00,
2013-05-05 04:05:00,56.2,45.4,30.01,ESE,112,0.0,0.0,67,0.00,,,0.00,Wunderground v.1.15,2013-05-05 08:05:00,
2013-05-05 05:05:00,54.8,45.2,30.01,ESE,114,0.0,0.0,70,0.00,,,0.00,Wunderground v.1.15,2013-05-05 09:05:00,
2013-05-05 06:05:00,52.8,44.7,30.00,ESE,111,0.0,0.0,74,0.00,,,0.00,Wunderground v.1.15,2013-05-05 10:05:00,
2013-05-05 07:05:00,52.6,45.2,30.01,East,92,1.0,1.0,76,0.00,,,0.00,Wunderground v.1.15,2013-05-05 11:05:00,
2013-05-05 08:05:00,56.7,45.9,30.00,ESE,110,2.0,4.0,67,0.00,,,0.00,Wunderground v.1.15,2013-05-05 12:05:00,
2013-05-05 09:05:00,59.3,45.8,30.01,ENE,61,2.0,4.0,61,0.00,,,0.00,Wunderground v.1.15,2013-05-05 13:05:00,
2013-05-05 10:05:00,62.3,41.8,30.00,ESE,115,3.0,4.0,47,0.00,,,0.00,Wunderground v.1.15,2013-05-05 14:05:00,
2013-05-05 11:05:00,63.2,43.2,29.99,ESE,116,2.0,4.0,48,0.00,,,0.00,Wunderground v.1.15,2013-05-05 15:05:00,
2013-05-05 12:05:00,65.0,43.7,29.98,North,10,2.0,4.0,46,0.00,,,0.00,Wunderground v.1.15,2013-05-05 16:05:00,
2013-05-05 13:05:00,68.0,44.7,29.98,ENE,78,2.0,4.0,43,0.00,,,0.00,Wunderground v.1.15,2013-05-05 17:05:00,
2013-05-05 14:05:00,69.5,45.4,29.97,East,86,2.0,4.0,42,0.00,,,0.00,Wunderground v.1.15,2013-05-05 18:05:00,
2013-05-05 15:05:00,70.3,46.1,29.96,NNE,13,1.0,4.0,42,0.00,,,0.00,Wunderground v.1.15,2013-05-05 19:05:00,
2013-05-05 16:05:00,70.8,44.6,29.94,ENE,70,1.0,4.0,39,0.00,,,0.00,Wunderground v.1.15,2013-05-05 20:05:00,
2013-05-05 17:05:00,71.2,45.0,29.92,North,10,1.0,4.0,39,0.00,,,0.00,Wunderground v.1.15,2013-05-05 21:05:00,
2013-05-05 18:05:00,71.5,44.5,29.92,ESE,106,2.0,4.0,38,0.00,,,0.00,Wunderground v.1.15,2013-05-05 22:05:00,
2013-05-05 19:05:00,70.8,43.2,29.91,East,92,1.0,4.0,37,0.00,,,0.00,Wunderground v.1.15,2013-05-05 23:05:00,
2013-05-05 20:05:00,69.2,42.5,29.91,NNE,33,1.0,4.0,38,0.00,,,0.00,Wunderground v.1.15,2013-05-06 00:05:00,
2013-05-05 21:05:00,66.7,42.2,29.92,NE,38,0.0,4.0,41,0.00,,,0.00,Wunderground v.1.15,2013-05-06 01:05:00,
2013-05-05 22:05:00,66.0,38.3,29.93,SE,132,1.0,4.0,36,0.00,,,0.00,Wunderground v.1.15,2013-05-06 02:05:00,
2013-05-05 23:05:00,65.9,36.0,29.93,ESE,106,2.0,4.0,33,0.00,,,0.00,Wunderground v.1.15,2013-05-06 03:05:00,